Weather History for Point Lay, AK

Change the Weather History Date:

Sunday, April 27, 2014

  Actual Average Record
Temperature  
Mean Temperature 16 °F -  
Max Temperature 22 °F 16 °F 37 °F (2005)
Min Temperature 9 °F 6 °F -9 °F (1999)
Degree Days  
Heating Degree Days 50    
Moisture  
Dew Point 11 °F    
Average Humidity 87    
Maximum Humidity 93    
Minimum Humidity 79    
Precipitation  
Precipitation 0.00 in - - ()
Sea Level Pressure  
Sea Level Pressure 29.73 in    
Wind  
Wind Speed 4 mph (ENE)    
Max Wind Speed 29 mph    
Max Gust Speed 31 mph    
Visibility 7 miles    
Events      
Averages and records for this station are not official NWS values.
T = Trace of Precipitation, MM = Missing Value Source: NWS Daily Summary

Daily Weather History Graph

Daily Weather History Graph

Search for Another Location

Airport:

Trip Planner

Search our weather history database for the weather conditions in past years. The results will help you decide how hot, cold, wet, or windy it might be!

Date:

Astronomy

Apr. 27, 2014 Rise Set
Actual Time 5:47 AM AKDT 11:55 PM AKDT
Civil Twilight 3:34 AM AKDT 2:29 AM AKDT
Nautical Twilight Sun does not rise Sun does not rise
Astronomical Twilight Sun does not rise Sun does not rise
Moon 6:06 AM AKDT (4/27) 9:53 PM AKDT (4/27)
Length of Visible Light 22h 55m
Length of Day
18h 08m
Waning Crescent, 2% of the Moon is Illuminated
Apr 27
Waning Crescent
Apr 28
New
May 6
First Quarter
May 14
Full
May 21
Last Quarter

Hourly Weather History & Observations

Time (AKDT) Temp. Windchill Dew Point Humidity Pressure Visibility Wind Dir Wind Speed Gust Speed Precip Events Conditions
12:56 AM 14.0 °F - 11.1 °F 88% 29.70 in 10.0 mi Calm Calm - N/A   Clear
1:56 AM 12.0 °F - 9.1 °F 88% 29.70 in 10.0 mi Calm Calm - N/A   Clear
2:56 AM 12.0 °F - 9.1 °F 88% 29.71 in 10.0 mi Calm Calm - N/A   Clear
3:24 AM 10.4 °F - 8.6 °F 92% 29.70 in 10.0 mi Calm Calm - N/A   Partly Cloudy
3:37 AM 10.4 °F - 8.6 °F 92% 29.70 in 10.0 mi Calm Calm - N/A   Mostly Cloudy
3:56 AM 10.0 °F - 7.2 °F 88% 29.71 in 10.0 mi Calm Calm - N/A   Scattered Clouds
4:56 AM 9.1 °F - 6.1 °F 87% 29.73 in 10.0 mi Calm Calm - N/A   Clear
5:56 AM 9.1 °F - 6.1 °F 87% 29.72 in 10.0 mi Calm Calm - N/A   Clear
6:56 AM 9.1 °F - 6.1 °F 87% 29.73 in 10.0 mi Calm Calm - N/A   Clear
7:56 AM 9.1 °F - 6.1 °F 87% 29.73 in 10.0 mi Calm Calm - N/A   Clear
8:56 AM 10.0 °F - 6.1 °F 84% 29.74 in 10.0 mi Calm Calm - N/A   Clear
9:56 AM 10.0 °F - 7.2 °F 88% 29.73 in 10.0 mi Calm Calm - N/A   Clear
10:14 AM 10.4 °F - 6.8 °F 85% 29.72 in 9.0 mi Calm Calm - N/A   Scattered Clouds
10:24 AM 10.4 °F - 6.8 °F 85% 29.73 in 6.0 mi Calm Calm - N/A   Mostly Cloudy
10:38 AM 10.4 °F - 6.8 °F 85% 29.73 in 1.8 mi Calm Calm - N/A   Overcast
10:56 AM 11.1 °F - 8.1 °F 87% 29.73 in 2.5 mi Calm Calm - N/A   Overcast
11:03 AM 12.2 °F - 8.6 °F 85% 29.73 in 3.0 mi Calm Calm - N/A   Overcast
11:13 AM 12.2 °F - 8.6 °F 85% 29.73 in 2.5 mi Calm Calm - N/A   Overcast
11:27 AM 12.2 °F - 8.6 °F 85% 29.73 in 3.0 mi Calm Calm - N/A   Overcast
11:38 AM 12.2 °F - 8.6 °F 85% 29.73 in 2.0 mi Calm Calm - N/A   Overcast
11:56 AM 13.1 °F - 9.1 °F 84% 29.75 in 5.0 mi Calm Calm - N/A   Overcast
12:56 PM 14.0 °F 3.9 °F 11.1 °F 88% 29.74 in 10.0 mi NE 6.9 mph - N/A   Partly Cloudy
1:56 PM 16.2 °F 6.5 °F 12.0 °F 84% 29.75 in 10.0 mi ENE 6.9 mph - N/A   Clear
2:56 PM 18.1 °F 5.0 °F 14.0 °F 84% 29.75 in 7.0 mi ENE 12.7 mph 17.3 mph N/A   Clear
3:56 PM 17.1 °F 8.7 °F 13.1 °F 84% 29.75 in 9.0 mi NE 5.8 mph 16.1 mph N/A   Clear
4:56 PM 17.1 °F 3.6 °F 13.1 °F 84% 29.76 in 6.0 mi ENE 12.7 mph 16.1 mph N/A   Clear
5:14 PM 17.6 °F 4.3 °F 14.0 °F 86% 29.74 in 8.0 mi ENE 12.7 mph - N/A   Partly Cloudy
5:56 PM 18.1 °F 3.9 °F 14.0 °F 84% 29.76 in 10.0 mi NE 15.0 mph - N/A   Clear
6:25 PM 17.6 °F 4.3 °F 12.2 °F 79% 29.74 in 10.0 mi NE 12.7 mph - N/A   Partly Cloudy
6:56 PM 18.1 °F 8.9 °F 14.0 °F 84% 29.75 in 6.0 mi ENE 6.9 mph - N/A   Partly Cloudy
7:56 PM 20.1 °F 6.4 °F 18.1 °F 92% 29.74 in 5.0 mi ENE 15.0 mph 18.4 mph N/A   Clear
8:41 PM 21.2 °F 6.4 °F 19.4 °F 93% 29.73 in 2.0 mi ENE 18.4 mph 25.3 mph N/A   Clear
8:56 PM 22.1 °F 6.0 °F 19.0 °F 88% 29.73 in 3.0 mi ENE 23.0 mph 29.9 mph N/A   Clear
9:56 PM 21.2 °F 4.9 °F 17.6 °F 86% 29.72 in 1.8 mi ENE 23.0 mph 28.8 mph N/A   Mostly Cloudy
10:31 PM 19.4 °F 2.8 °F 17.6 °F 93% 29.72 in 2.5 mi ENE 21.9 mph 29.9 mph N/A   Scattered Clouds
10:56 PM 20.1 °F 3.4 °F 17.1 °F 88% 29.74 in 3.0 mi ENE 23.0 mph 29.9 mph N/A   Clear
11:46 PM 19.4 °F 1.4 °F 15.8 °F 86% 29.73 in 1.8 mi ENE 26.5 mph 31.1 mph N/A   Clear
11:56 PM 19.0 °F 0.3 °F 16.2 °F 89% 29.75 in 1.5 mi ENE 28.8 mph - N/A   Clear